User: anonymous   Login
Location: Unspecified
(0.0000°N, 0.0000°E)
Time: 22:58:38
(UTC+00:00)
Language:

NOAA 14 - Orbit

View from above orbital plane
View from above orbital plane
View from above satellite
View from above satellite

Ground track
Ground track

The orbit data is extracted from the following two-line orbital elements,

1 23455U 94089A   18018.91223362 -.00000015 +00000-0 +14777-4 0  9992
2 23455 098.6644 092.6490 0008404 258.3367 101.6864 14.14109873189088
Epoch (UTC): 18 January 2018 21:53:36
Eccentricity: 0.0008404
inclination: 98.6644°
perigee height: 839 km
apogee height: 851 km
right ascension of ascending node: 92.6490°
argument of perigee: 258.3367°
revolutions per day: 14.14109873
mean anomaly at epoch: 101.6864°
orbit number at epoch: 18908

The dashed part of the orbit path shows where the satellite is in the earth's shadow,  

DLR